Home > Time Zones > World Clock > Weather > Iran > Tehran > Past weeks

Flag for Iran Weather past 2 weeks in Tehran, Iran

Now
55 °F

Haze.


Feels Like: 55 °F
Forecast: 36 / 55 °F
Wind: 5 mph from Southeast

Location: Tehran-Mehrabad

Current Time: Dec 28, 2014 at 2:38:21 PM

Latest Report: Dec 28, 2014 at 2:00 PM


Visibility: 2 mi

Pressure: 30.07 "Hg

Humidity: 41%

Dew point: 32 °F

Location of TehranLocation

Historic Weather in Tehran — Graph

°F

Tehran temperature yesterday

Maximum temperature yesterday: 52 °F (at 2:00 PM)
Minimum temperature yesterday: 36 °F (at 5:00 AM)
Average temperature yesterday: 45 °F

Past Weeks' High & Low Weather Summary

 TemperatureHumidityPressure
High55 °F (Dec 13, 1:30 PM)93% (Dec 21, 8:00 AM)30.33 "Hg (Dec 21, 8:00 AM)
Low34 °F (Dec 23, 6:00 AM)24% (Dec 15, 1:30 PM)29.92 "Hg (Dec 23, 1:30 PM)
Average44 °F59%30.15 "Hg
* Reported Dec 13 1:30 PM — Dec 28 1:30 PM, Tehran, Weather by CustomWeather, © 2014

Note: Actual official high and low records may vary slightly from our data, if they occured in-between our weather recording intervals... More about our weather records

Advertising

Tehran weather history for previous 24 hours

 ConditionsComfort  
Time TempWeatherWind HumidityBarometerVisibility
1:30 PM
Dec 28
55 °FHaze.5 mph41%30.07 "Hg2 mi
1:00 PM55 °FHaze.9 mph38%30.09 "Hg2 mi
12:30 PM55 °FHaze.9 mph38%30.09 "Hg2 mi
12:00 PM54 °FHaze.5 mph38%30.12 "Hg1 mi
11:30 AM54 °FHaze.5 mph38%30.12 "Hg1 mi
11:00 AM52 °FHaze.7 mph41%30.15 "Hg1 mi
10:30 AM52 °FHaze.7 mph41%30.15 "Hg1 mi
10:00 AM50 °FScattered clouds.No wind50%30.18 "Hg1 mi
9:30 AM48 °FScattered clouds.No wind54%30.15 "Hg1 mi
9:00 AM46 °FPartly sunny.No wind57%30.15 "Hg1 mi
8:30 AM46 °FPartly sunny.5 mph57%30.15 "Hg1 mi
8:00 AM46 °FPartly sunny.5 mph57%30.15 "Hg1 mi
7:30 AM45 °FPassing clouds.5 mph61%30.12 "Hg1 mi
7:00 AM43 °FPassing clouds.No wind66%30.12 "Hg4 mi
6:30 AM45 °FPassing clouds.5 mph61%30.12 "Hg4 mi
6:00 AM45 °FPassing clouds.5 mph57%30.12 "Hg4 mi
5:30 AM45 °FPassing clouds.5 mph57%30.12 "Hg4 mi
5:00 AM45 °FPassing clouds.No wind57%30.12 "Hg4 mi
4:30 AM45 °FPassing clouds.No wind57%30.12 "Hg4 mi
3:30 AM43 °FPassing clouds.7 mph61%30.15 "Hg4 mi
3:00 AM43 °FPassing clouds.9 mph61%30.12 "Hg4 mi
2:30 AM45 °FClear.5 mph53%30.12 "Hg3 mi
2:00 AM46 °FClear.5 mph53%30.12 "Hg3 mi
1:30 AM45 °FPassing clouds.5 mph57%30.15 "Hg3 mi
1:00 AM45 °FPassing clouds.No wind53%30.12 "Hg3 mi
12:30 AM46 °FHaze.5 mph50%30.15 "Hg3 mi
12:00 AM45 °FHaze.No wind53%30.15 "Hg2 mi
11:30 PM
Dec 27
46 °FHaze.5 mph53%30.15 "Hg2 mi
11:00 PM46 °FHaze.5 mph53%30.15 "Hg3 mi
10:30 PM46 °FHaze.No wind50%30.15 "Hg3 mi
10:00 PM46 °FHaze.No wind53%30.15 "Hg2 mi
9:30 PM46 °FHaze.5 mph50%30.15 "Hg2 mi
9:00 PM46 °FHaze.5 mph53%30.15 "Hg2 mi
8:30 PM46 °FHaze.5 mph53%30.15 "Hg3 mi
8:00 PM46 °FHaze.5 mph53%30.15 "Hg2 mi
7:30 PM48 °FHaze.No wind50%30.15 "Hg2 mi
7:00 PM48 °FHaze.5 mph46%30.15 "Hg2 mi
6:30 PM48 °FHaze.5 mph46%30.15 "Hg2 mi
6:00 PM48 °FHaze.5 mph46%30.12 "Hg2 mi
5:30 PM48 °FHaze.5 mph46%30.12 "Hg2 mi
5:00 PM48 °FHaze.No wind46%30.12 "Hg2 mi
4:30 PM50 °FHaze.5 mph43%30.12 "Hg2 mi
4:00 PM50 °FHaze.5 mph40%30.12 "Hg3 mi
3:30 PM50 °FHaze.5 mph40%30.12 "Hg3 mi
3:00 PM50 °FClear.5 mph40%30.12 "Hg4 mi
2:30 PM52 °FClear.5 mph38%30.12 "Hg4 mi
2:00 PM52 °FClear.5 mph38%30.12 "Hg4 mi
Weather by CustomWeather, © 2014

See weather overviewHow to use our weather pages